Location: Newark
(39.7100°N, 90.2000°W)
Time: 15:17:10
(UTC+00:00)

Hubble Space Telescope - Visible Passes

Search period start: 17 February 2020 00:00
Search period end: 27 February 2020 00:00
Orbit: 536 x 540 km, 28.5° (Epoch: 16 February)

Date Brightness Start Highest point End Pass type
(mag) Time Alt. Az. Time Alt. Az. Time Alt. Az.
20 Feb 3.3 01:31:21 10° S 01:31:45 11° S 01:31:45 11° S visible
21 Feb 3.0 01:20:00 10° SSW 01:21:51 13° SSE 01:21:51 13° SSE visible
22 Feb 2.9 01:08:53 10° SSW 01:11:07 14° S 01:11:57 13° SSE visible
23 Feb 2.9 00:57:54 10° SSW 01:00:21 15° S 01:02:00 13° SE visible
24 Feb 2.9 00:47:00 10° SW 00:49:37 16° S 00:52:03 11° SE visible
25 Feb 2.9 00:36:10 10° SW 00:38:52 17° S 00:41:34 10° SE visible
25 Feb 3.6 02:17:05 10° SW 02:17:26 11° SW 02:17:26 11° SW visible
26 Feb 2.9 00:25:23 10° SW 00:28:07 17° S 00:30:51 10° SE visible
26 Feb 3.4 02:06:39 10° SW 02:07:30 12° SSW 02:07:30 12° SSW visible
